This is the latest recevied weather packets stored in our database for station/object dl1wer-13. If no packets are shown the sender has not sent any weather packets the latest 10 day(s).
| Time | Temp. | Humidity | Pressure | Rain* | Wind** | Luminosity | Snow |
|---|---|---|---|---|---|---|---|
| 1777533016 | 7.78° C | 40% | 1050.9 hPa | 0 mm | - | - | - |
| 1777532416 | 7.22° C | 44% | 1051.1 hPa | 0 mm | - | - | - |
| 1777531817 | 6.67° C | 44% | 1050.9 hPa | 0 mm | - | - | - |
| 1777530617 | 6.11° C | 44% | 1051 hPa | 0 mm | - | - | - |
| 1777530017 | 6.11° C | 44% | 1051 hPa | 0 mm | - | - | - |
| 1777529417 | 5.56° C | 44% | 1051 hPa | 0 mm | - | - | - |
| 1777528817 | 5.56° C | 44% | 1050.9 hPa | 0 mm | - | - | - |
| 1777528217 | 5.56° C | 45% | 1050.8 hPa | 0 mm | - | - | - |
| 1777527616 | 5.56° C | 44% | 1050.7 hPa | 0 mm | - | - | - |
| 1777527016 | 5° C | 45% | 1050.8 hPa | 0 mm | - | - | - |
| 1777526416 | 5° C | 45% | 1050.6 hPa | 0 mm | - | - | - |
| 1777525816 | 5° C | 45% | 1050.5 hPa | 0 mm | - | - | - |
| 1777525217 | 5° C | 46% | 1050.6 hPa | 0 mm | - | - | - |
| 1777524616 | 5° C | 48% | 1050.5 hPa | 0 mm | - | - | - |
| 1777524016 | 4.44° C | 50% | 1050.4 hPa | 0 mm | - | - | - |
| 1777523417 | 3.89° C | 50% | 1050.4 hPa | 0 mm | - | - | - |
| 1777522817 | 3.89° C | 50% | 1050.2 hPa | 0 mm | - | - | - |
| 1777522216 | 3.89° C | 51% | 1050 hPa | 0 mm | - | - | - |
| 1777521617 | 4.44° C | 51% | 1050 hPa | 0 mm | - | - | - |
| 1777521017 | 4.44° C | 51% | 1050.2 hPa | 0 mm | - | - | - |
| 1777520417 | 4.44° C | 51% | 1050.3 hPa | 0 mm | - | - | - |
| 1777519817 | 5° C | 51% | 1049.9 hPa | 0 mm | - | - | - |
| 1777519216 | 5° C | 52% | 1050 hPa | 0 mm | - | - | - |
| 1777518616 | 5° C | 52% | 1050.2 hPa | 0 mm | - | - | - |
| 1777518017 | 5.56° C | 52% | 1050 hPa | 0 mm | - | - | - |
* Rain latest hour (hover to see other rain measurements)
** Current wind speed in m/s (hover to see current wind gust speed)